Location: Bieg
(49.3499°N, 10.3835°E)
Time: 01:02:41
(UTC+00:00)

Cosmos 1408 - Pass Details

Date: 23 May 2024
Orbit: 363 x 378 km, 82.6° (Epoch: 15 June)

Event Time Altitude Azimuth Distance (km) Brightness Sun altitude
Exits shadow 01:24:52 22° 162° (SSE) 861 3.5 -14.3°
Maximum altitude 01:26:27 49° 96° (E) 486 2.7 -14.2°
Drops below altitude 10° 01:29:19 10° 20° (NNE) 1,366 6.2 -13.9°
Sets 01:31:20 0° 15° (NNE) 2,220 7.4 -13.8°
